^^
Saratoga-Weather Station Historical Data
Daily Summary for June 6, 2020 Units:  English    Metric   Both
Daily Weekly Monthly Yearly Custom
  High: Low: Average:
Temperature: 55.9 °F 51.6 °F 53.8 °F
Dew Point: 48.4 °F 47.1 °F 47.8 °F
Humidity: 85% 75% 80%
Wind Speed: 2mph 0mph 0.2mph
Wind Gust: 2mph - -
Wind- - WSW
Pressure: 30.1 in 30.1 in -
Precipitation: 0 in    
Historical Graphs
 
 
Tabular Data for June 6, 2020
Time Temperature Dew Point Pressure Wind Wind Speed Wind Gust Humidity Rainfall Rate (Hourly) solar
00:03 55.9 °F 48.2 °F 30.1 in West 0.9 mph 1 mph 75% 0 in 0 W/m2
00:08 55.6 °F 48.2 °F 30.1 in Calm     76% 0 in 0 W/m2
00:13 55.2 °F 48.2 °F 30.1 in West 0.9 mph 1 mph 77% 0 in 0 W/m2
00:18 55 °F 48.4 °F 30.1 in Calm   2 mph 78% 0 in 0 W/m2
00:23 55 °F 48.4 °F 30.1 in WSW 2 mph 2 mph 78% 0 in 0 W/m2
00:28 55 °F 48.4 °F 30.1 in Calm   2 mph 78% 0 in 0 W/m2
00:33 55 °F 48.4 °F 30.1 in Calm     78% 0 in 0 W/m2
00:38 55 °F 48.4 °F 30.1 in Calm   2 mph 78% 0 in 0 W/m2
00:43 54.9 °F 48.2 °F 30.1 in Calm     78% 0 in 0 W/m2
00:48 54.9 °F 48.2 °F 30.1 in Calm     78% 0 in 0 W/m2
00:53 54.7 °F 48.4 °F 30.1 in Calm     79% 0 in 0 W/m2
00:58 54.3 °F 48 °F 30.1 in Calm     79% 0 in 0 W/m2
01:03 54.1 °F 47.8 °F 30.1 in Calm   1 mph 79% 0 in 0 W/m2
01:08 53.8 °F 47.8 °F 30.1 in WSW 0.9 mph 1 mph 80% 0 in 0 W/m2
01:13 53.8 °F 48 °F 30.1 in WSW 0.9 mph 1 mph 81% 0 in 0 W/m2
01:18 53.4 °F 47.7 °F 30.1 in Calm     81% 0 in 0 W/m2
01:23 53.4 °F 47.7 °F 30.1 in Calm     81% 0 in 0 W/m2
01:28 53.2 °F 47.5 °F 30.1 in Calm     81% 0 in 0 W/m2
01:33 53.1 °F 47.7 °F 30.1 in Calm     82% 0 in 0 W/m2
01:38 52.9 °F 47.5 °F 30.1 in Calm     82% 0 in 0 W/m2
01:43 52.5 °F 47.5 °F 30.1 in Calm     83% 0 in 0 W/m2
01:48 52.3 °F 47.3 °F 30.1 in Calm   2 mph 83% 0 in 0 W/m2
01:54 52.3 °F 47.7 °F 30.1 in Calm   1 mph 84% 0 in 0 W/m2
01:59 52.2 °F 47.5 °F 30.1 in Calm     84% 0 in 0 W/m2
02:04 52 °F 47.3 °F 30.1 in Calm   1 mph 84% 0 in 0 W/m2
02:09 51.8 °F 47.1 °F 30.1 in Calm     84% 0 in 0 W/m2
02:14 51.6 °F 47.3 °F 30.1 in Calm     85% 0 in 0 W/m2
Juneau County Weather
Compliments of Weather Underground - 2 mb